Wind_Speed
6 6 6 6 8 9 10 12 14 15 16 18 18 20 23 25 27 27 27 26 26 25 24 24 24 25 26 13 21 15 14 13 8 10 10 10 10 7 5 4 5 6 4 9 14 16 18
9 8 9 9 10 11 13 14 16 16 17 18 19 21 24 27 28 29 28 27 26 25 23 23 22 23 18 7 9 7 19 22 15 10 13 13 6 10 4 5 4 3 4 12 15 23 23
4 5 4 7 9 10 11 11 12 14 15 17 19 22 24 26 29 30 31 27 26 26 25 24 23 22 22 37 22 21 16 13 20 15 16 15 11 7 2 3 8 8 7 7 6 8 8
5 5 6 6 7 9 9 11 13 14 15 18 20 22 26 27 29 29 31 28 26 26 24 20 19 17 16 23 22 24 17 22 20 19 17 14 12 10 5 7 6 4 3 2 4 4 7
5 4 3 4 6 9 11 12 13 15 17 19 22 22 23 26 30 30 31 26 22 21 19 14 11 10 15 11 13 8 7 8 10 22 17 14 13 10 5 3 4 2 6 4 6 4 5
6 5 5 7 12 12 7 11 14 16 17 19 21 21 23 26 30 30 28 25 18 14 13 9 5 7 12 7 7 4 7 5 5 11 12 9 7 4 3 4 7 6 5 3 3 4 6
13 12 12 11 12 10 7 8 11 14 18 19 20 23 24 26 28 25 25 22 13 5 21 11 19 21 36 22 19 6 5 4 5 7 5 5 4 7 9 5 2 3 4 7 4 5 9
9 9 10 10 6 5 8 9 13 15 16 18 21 23 24 26 24 17 16 8 12 15 18 30 33 39 42 41 24 38 16 5 6 5 4 1 8 7 7 5 5 5 7 8 7 5 6
8 7 5 6 7 7 8 10 12 15 16 18 19 18 21 24 18 17 13 4 17 22 8 18 23 19 18 16 24 35 16 9 5 7 7 6 4 5 7 5 5 5 5 4 8 8 9
9 9 8 7 8 9 10 12 14 15 16 15 16 16 19 22 9 20 8 14 13 15 5 8 5 6 6 8 8 34 28 19 6 10 6 7 5 6 4 4 7 3 5 4 7 7 2
6 5 6 6 7 8 8 9 10 12 15 16 14 15 16 17 17 18 17 17 9 5 6 4 4 5 3 6 18 7 27 22 12 7 6 5 5 4 3 5 6 5 2 3 4 4 6
12 10 10 10 9 8 9 9 11 14 15 15 14 15 16 14 15 13 17 14 7 1 8 7 3 11 9 8 7 5 11 8 10 5 1 5 1 4 6 3 5 3 1 4 4 2 5
6 6 5 3 7 9 8 8 10 13 15 15 14 14 14 16 15 16 15 9 2 4 8 6 9 13 14 11 4 6 5 4 5 5 5 2 4 3 3 1 1 2 2 2 3 3 5
10 3 6 8 6 6 7 9 10 12 14 15 14 15 14 16 16 12 9 3 4 3 6 12 13 17 6 15 8 4 7 4 1 5 4 6 2 7 4 4 3 4 4 2 4 3 4
7 5 6 5 7 8 7 8 10 11 13 15 16 16 16 14 7 5 3 3 3 2 9 11 15 5 5 9 9 7 5 7 7 7 4 4 1 2 2 3 5 3 4 2 4 3 5
4 5 7 9 8 5 6 8 9 10 12 14 15 16 9 9 5 6 3 5 4 6 12 8 4 6 6 13 9 12 3 2 4 6 2 4 4 2 1 3 1 3 3 1 3 3 4
7 8 9 6 3 5 7 8 9 10 11 12 12 8 6 8 2 3 2 4 3 14 14 5 6 8 7 8 9 7 2 4 3 2 5 3 3 1 1 3 5 2 1 2 1 3 2
11 7 8 6 4 5 7 8 8 9 10 9 6 2 4 5 1 2 2 2 2 7 9 5 5 9 12 1 7 7 5 5 9 2 4 1 4 2 6 2 3 1 4 4 3 2 4
9 8 11 8 5 7 7 8 8 8 8 6 3 5 6 7 0 2 3 7 8 5 6 4 4 7 2 6 6 7 5 2 6 3 4 4 2 1 2 2 3 2 2 3 2 4 5
10 7 6 7 9 10 10 10 9 5 6 2 1 2 3 1 2 2 4 7 6 10 14 14 9 10 12 6 9 9 14 7 2 3 7 3 2 3 3 2 2 3 3 5 5 3 5
10 9 8 9 11 13 12 8 5 6 6 3 2 2 2 3 3 3 4 3 11 10 13 10 5 16 13 5 5 4 6 5 6 4 3 3 3 1 3 5 2 6 9 11 10 13 9
11 12 10 12 8 6 6 6 5 9 8 8 3 1 2 7 12 5 4 3 12 9 4 6 12 9 10 8 6 3 6 3 2 3 2 2 3 3 3 4 2 4 15 14 12 14 15
16 13 12 11 11 13 12 11 8 10 10 6 6 8 5 6 4 1 3 3 10 13 13 21 9 4 5 9 20 17 14 5 3 3 1 2 3 2 3 4 6 5 5 4 6 8 14
11 13 14 16 13 12 8 9 9 10 12 13 11 3 2 4 3 5 10 15 16 15 12 5 17 6 3 13 10 8 9 8 5 6 5 6 4 1 2 4 2 5 0 4 7 13 9
13 15 14 10 11 12 11 11 11 12 14 17 17 13 5 3 5 10 8 12 19 21 12 3 8 2 10 9 1 1 2 2 5 6 7 3 4 2 1 1 6 9 2 2 2 18 12
13 14 14 13 13 14 13 12 12 11 12 18 20 18 7 1 5 8 5 8 5 7 7 3 22 7 5 1 1 2 2 1 2 1 4 5 4 3 2 1 3 4 3 8 7 5 17
16 18 16 16 15 14 14 14 13 13 12 17 22 23 13 5 13 15 5 3 7 7 5 6 18 11 13 3 2 1 1 2 1 3 2 3 1 7 6 5 5 4 12 16 5 7 14
16 17 18 16 14 14 14 14 13 13 13 15 21 19 22 7 16 15 11 9 15 9 2 15 9 5 5 5 3 3 3 3 3 2 2 4 4 3 3 3 6 19 10 3 4 12 13
20 16 14 13 13 14 15 14 14 15 13 14 19 19 19 13 10 13 17 22 24 20 10 4 2 4 5 3 1 2 2 3 2 2 5 1 3 2 4 1 9 16 14 15 18 16 15
Wind_Direction
269 278 295 318 319 322 323 327 328 333 337 338 337 337 337 336 335 332 328 325 322 319 315 310 309 307 314 303 270 263 240 220 208 213 219 207 190 184 186 212 232 224 258 257 257 257 257
272 280 283 285 292 303 313 317 322 333 338 338 335 337 335 336 336 333 328 325 319 316 312 305 303 300 302 279 289 264 245 237 239 226 214 205 209 217 237 231 200 262 283 270 267 255 254
268 288 300 309 310 315 319 328 328 323 338 336 331 331 333 334 334 332 327 326 320 314 304 298 293 286 275 265 280 271 251 239 225 227 222 217 219 210 175 311 271 280 292 280 221 220 240
248 282 305 319 326 333 340 335 331 329 324 322 323 323 325 328 329 331 326 325 323 312 310 305 294 268 259 292 282 271 257 254 235 218 223 228 219 242 211 268 328 315 283 308 300 185 247
261 272 317 309 318 322 334 337 339 334 335 332 330 329 324 325 328 333 328 327 327 313 313 313 289 240 269 292 295 281 270 246 239 220 221 232 236 216 169 114 341 314 254 247 306 241 263
236 243 246 273 292 305 314 329 329 327 333 336 339 339 332 330 331 339 333 333 324 298 308 319 328 269 263 287 306 258 302 208 198 184 199 196 199 153 109 145 230 209 248 242 245 318 338
247 249 262 282 298 309 293 307 307 315 327 333 336 340 338 337 339 344 348 359 5 309 318 282 272 264 281 286 297 268 222 279 227 197 174 186 175 208 203 191 201 305 272 260 270 286 283
252 256 264 283 303 322 313 298 304 313 321 326 330 335 339 342 346 353 359 53 27 324 298 294 287 275 267 268 270 265 261 248 192 190 156 134 239 210 202 199 213 240 267 281 283 244 294
253 259 265 290 303 302 305 308 308 311 314 320 326 334 340 346 353 358 355 325 340 335 267 299 269 261 261 250 230 249 213 205 199 189 184 186 211 165 179 203 205 220 227 249 272 293 252
238 259 279 299 307 312 306 303 309 315 320 333 336 339 341 345 356 352 12 324 327 331 291 281 262 274 223 231 250 238 223 192 202 193 178 230 221 201 178 193 173 229 220 253 300 315 258
225 261 295 304 312 315 307 315 322 324 323 329 331 334 341 342 332 343 333 338 324 324 313 292 299 331 282 202 306 351 203 195 186 162 162 229 177 164 177 213 162 221 35 275 271 255 302
225 245 274 296 308 320 325 330 333 329 325 323 323 319 328 328 328 342 331 327 324 358 250 296 330 356 328 254 281 58 171 212 163 123 101 191 197 179 193 171 174 125 257 267 201 249 260
247 255 279 287 288 312 332 333 336 332 330 328 323 319 320 314 322 328 329 344 55 221 333 311 339 331 311 305 276 150 168 185 147 122 190 157 200 168 147 125 152 126 98 345 11 194 249
224 240 286 300 299 304 304 316 326 326 330 324 330 326 319 309 311 314 333 42 226 316 263 332 338 321 7 14 329 200 146 177 117 100 117 174 210 167 182 186 153 164 171 180 226 222 291
175 232 282 272 284 300 303 315 321 324 331 322 329 331 327 339 328 257 112 211 240 339 1 330 321 328 332 7 338 321 200 193 191 176 129 134 348 110 187 134 146 155 188 169 309 249 273
206 251 258 271 274 302 304 312 318 327 324 322 336 335 353 2 348 160 102 230 284 336 347 328 288 6 332 340 344 339 317 308 170 190 125 177 102 3 99 121 287 129 87 149 179 253 248
213 237 261 285 248 276 302 310 318 325 318 324 337 336 2 347 124 183 214 233 288 296 327 314 331 319 316 329 331 307 347 291 347 85 97 110 86 254 37 209 169 135 192 208 298 240 265
228 250 273 235 243 287 296 307 318 324 318 324 345 352 332 354 30 220 213 268 254 292 315 292 272 272 274 328 290 300 310 316 352 329 82 26 115 182 233 250 173 126 180 204 245 239 232
263 264 268 220 254 277 291 299 306 314 316 324 335 299 288 296 150 300 277 262 261 263 250 253 268 310 289 343 341 275 295 266 2 48 146 183 143 66 51 65 48 29 59 349 2 276 245
267 256 237 218 272 276 287 292 284 294 291 263 347 324 310 151 274 183 297 282 258 250 262 256 256 263 284 291 204 275 296 297 156 72 103 143 98 136 178 181 147 296 272 279 246 250 295
267 226 246 255 270 285 287 285 253 252 259 181 199 242 277 298 300 243 317 280 286 278 238 231 267 230 242 239 219 275 292 291 45 25 36 81 110 142 272 280 222 252 267 263 241 250 255
253 245 249 255 260 263 274 270 259 248 243 201 179 206 324 279 282 263 248 253 285 297 263 260 222 243 232 238 221 228 282 331 334 354 60 342 120 125 285 263 296 272 278 284 264 262 253
249 229 240 250 256 264 272 262 242 249 219 189 213 248 263 265 290 331 246 283 286 295 294 239 246 208 253 252 234 237 245 269 271 163 138 76 108 113 261 341 330 290 223 236 267 278 289
221 246 262 251 250 264 253 249 240 243 242 239 239 211 234 267 239 263 298 303 301 316 300 269 221 228 259 320 291 266 260 266 239 232 167 144 136 95 295 354 328 257 211 210 289 269 310
244 260 267 250 243 240 248 250 261 238 238 236 238 221 215 277 299 296 309 319 320 316 314 30 10 255 302 323 354 259 294 320 254 239 211 142 134 98 131 204 284 301 340 311 318 312 336
242 250 258 249 247 249 250 254 259 248 235 237 243 233 210 251 254 286 338 305 304 317 322 12 353 16 15 60 69 166 185 210 277 91 74 80 70 119 171 254 255 245 293 233 268 283 352
246 249 259 248 248 247 252 257 255 244 231 238 245 225 204 226 271 281 269 310 313 344 297 314 345 346 18 16 81 102 276 228 27 19 40 69 88 228 239 243 272 339 315 303 324 357 351
246 246 245 249 243 247 250 250 246 234 231 243 249 223 216 221 261 266 278 277 303 316 337 319 341 359 342 24 7 358 9 356 358 286 184 187 174 212 204 226 262 352 334 6 49 47 32
252 248 238 243 245 251 250 248 235 230 227 230 238 230 229 231 267 279 276 269 271 279 291 302 293 315 352 324 344 318 331 350 342 280 346 329 15 287 195 166 40 28 45 48 85 62 51
Height
1512 1512 1512 1512 1512 1512 1511 1510 1509 1506 1503 1501 1498 1496 1493 1490 1487 1484 1481 1479 1477 1475 1472 1470 1468 1464 1462 1461 1452 1454 1451 1450 1451 1451 1453 1455 1456 1458 1459 1457 1455 1455 1454 1454 1455 1454 1454
1511 1510 1510 1510 1510 1509 1509 1508 1508 1505 1503 1500 1497 1495 1492 1488 1485 1482 1478 1476 1474 1471 1468 1467 1465 1462 1462 1460 1446 1446 1445 1447 1449 1449 1450 1452 1453 1454 1454 1454 1455 1449 1450 1451 1451 1451 1448
1508 1509 1507 1509 1509 1507 1507 1505 1505 1504 1501 1499 1497 1494 1490 1487 1483 1479 1476 1473 1471 1466 1463 1461 1461 1459 1455 1443 1446 1443 1443 1443 1444 1446 1448 1448 1451 1453 1453 1452 1450 1448 1450 1448 1446 1445 1444
1506 1504 1505 1505 1506 1505 1505 1505 1503 1502 1499 1497 1495 1492 1489 1485 1480 1477 1473 1470 1466 1461 1458 1457 1456 1455 1444 1438 1439 1438 1439 1437 1440 1443 1445 1448 1449 1450 1451 1450 1448 1450 1449 1452 1441 1440 1437
1504 1503 1502 1503 1503 1504 1503 1502 1501 1500 1497 1496 1494 1490 1487 1483 1478 1473 1469 1467 1463 1459 1455 1454 1452 1454 1440 1436 1435 1436 1434 1434 1434 1439 1443 1446 1446 1447 1448 1453 1457 1455 1456 1452 1446 1436 1436
1503 1502 1500 1501 1502 1501 1502 1501 1500 1499 1497 1495 1492 1488 1485 1482 1477 1471 1467 1464 1460 1458 1455 1453 1450 1456 1440 1437 1436 1436 1433 1434 1435 1436 1440 1442 1444 1446 1449 1453 1457 1455 1452 1449 1448 1441 1437
1501 1498 1500 1499 1498 1498 1500 1500 1498 1496 1495 1493 1491 1487 1484 1480 1475 1470 1466 1461 1463 1459 1456 1457 1453 1450 1437 1436 1436 1435 1434 1433 1433 1434 1437 1438 1445 1447 1443 1443 1442 1444 1446 1451 1446 1443 1443
1498 1497 1497 1495 1495 1496 1498 1497 1497 1495 1492 1491 1488 1486 1483 1478 1475 1471 1470 1471 1476 1477 1452 1446 1440 1433 1430 1434 1431 1429 1434 1434 1431 1433 1434 1439 1439 1437 1438 1441 1443 1445 1448 1446 1441 1436 1439
1496 1496 1495 1494 1494 1494 1495 1495 1494 1493 1491 1489 1486 1484 1482 1478 1473 1473 1472 1474 1474 1471 1463 1433 1425 1420 1419 1421 1417 1414 1426 1428 1429 1432 1432 1434 1431 1430 1435 1438 1440 1442 1445 1444 1444 1436 1433
1495 1494 1493 1491 1492 1492 1493 1493 1492 1492 1491 1486 1484 1482 1481 1477 1476 1472 1473 1474 1473 1469 1463 1436 1424 1417 1415 1417 1412 1404 1411 1420 1425 1427 1430 1431 1426 1430 1433 1433 1436 1442 1436 1437 1438 1440 1444
1493 1492 1490 1490 1491 1490 1491 1490 1490 1489 1489 1486 1484 1482 1480 1477 1476 1475 1476 1472 1471 1471 1472 1427 1421 1419 1417 1418 1408 1399 1406 1413 1415 1421 1427 1427 1426 1429 1431 1430 1431 1435 1434 1435 1435 1437 1436
1489 1489 1488 1488 1490 1488 1488 1488 1487 1488 1487 1485 1482 1480 1479 1478 1476 1475 1474 1472 1471 1475 1465 1434 1423 1423 1420 1413 1409 1408 1408 1411 1412 1419 1423 1425 1424 1427 1426 1427 1429 1431 1433 1432 1430 1429 1437
1487 1487 1485 1486 1489 1488 1487 1486 1485 1486 1486 1485 1480 1478 1477 1476 1475 1475 1475 1474 1478 1476 1447 1437 1431 1428 1419 1412 1405 1405 1408 1411 1413 1422 1425 1425 1425 1424 1425 1428 1429 1430 1434 1443 1445 1434 1430
1481 1484 1484 1485 1487 1487 1487 1485 1484 1484 1483 1484 1479 1477 1475 1474 1474 1474 1476 1478 1480 1457 1455 1443 1438 1428 1422 1420 1410 1402 1407 1412 1409 1412 1426 1430 1427 1424 1423 1425 1427 1432 1431 1430 1434 1432 1424
1480 1482 1482 1482 1485 1484 1485 1485 1484 1483 1481 1482 1477 1475 1472 1472 1471 1473 1477 1479 1468 1461 1460 1454 1442 1434 1429 1427 1433 1411 1405 1408 1406 1407 1413 1422 1421 1420 1420 1421 1424 1429 1431 1427 1431 1426 1425
1477 1479 1480 1480 1480 1482 1483 1483 1482 1481 1481 1480 1477 1473 1471 1472 1471 1473 1478 1474 1467 1462 1461 1456 1452 1442 1438 1435 1431 1425 1409 1407 1405 1405 1405 1414 1422 1420 1419 1421 1423 1423 1430 1427 1432 1434 1422
1475 1477 1477 1476 1477 1480 1481 1482 1481 1479 1479 1479 1476 1473 1473 1471 1473 1475 1478 1471 1467 1465 1465 1461 1454 1451 1443 1440 1437 1428 1409 1412 1406 1405 1405 1412 1416 1425 1420 1421 1424 1427 1428 1430 1430 1424 1420
1473 1474 1474 1475 1476 1477 1479 1480 1480 1479 1478 1477 1476 1478 1474 1473 1476 1473 1476 1468 1468 1463 1462 1460 1455 1450 1444 1443 1439 1433 1422 1411 1408 1406 1412 1416 1420 1428 1423 1418 1419 1421 1425 1424 1425 1421 1418
1471 1471 1472 1472 1475 1475 1476 1477 1478 1479 1478 1477 1477 1477 1474 1473 1483 1477 1470 1468 1466 1462 1458 1456 1453 1448 1446 1442 1443 1434 1428 1414 1410 1410 1413 1417 1423 1427 1419 1421 1422 1425 1424 1428 1431 1428 1415
1467 1468 1469 1470 1472 1473 1473 1475 1476 1477 1476 1478 1478 1478 1474 1474 1474 1475 1472 1464 1462 1457 1454 1452 1449 1447 1444 1444 1442 1434 1427 1418 1412 1411 1414 1416 1423 1422 1425 1428 1431 1435 1425 1425 1427 1431 1421
1463 1465 1467 1467 1470 1469 1470 1472 1473 1475 1475 1477 1477 1478 1477 1478 1473 1472 1470 1466 1461 1457 1449 1446 1443 1441 1441 1441 1435 1430 1426 1418 1413 1417 1418 1417 1424 1427 1426 1425 1427 1426 1426 1422 1423 1418 1419
1460 1462 1464 1466 1465 1466 1468 1470 1472 1473 1473 1475 1476 1478 1477 1474 1470 1468 1464 1460 1457 1453 1450 1440 1439 1434 1435 1436 1429 1431 1430 1419 1417 1419 1419 1420 1427 1428 1427 1422 1421 1422 1418 1415 1414 1411 1408
1456 1458 1461 1462 1462 1464 1465 1467 1470 1470 1471 1472 1475 1476 1477 1471 1468 1468 1463 1458 1454 1451 1437 1435 1433 1434 1432 1428 1427 1424 1424 1421 1418 1420 1423 1422 1427 1433 1437 1423 1425 1422 1411 1407 1406 1403 1399
1453 1455 1457 1457 1458 1460 1462 1464 1466 1467 1467 1470 1472 1474 1475 1471 1467 1462 1459 1456 1451 1447 1440 1430 1430 1431 1429 1426 1424 1422 1421 1420 1419 1419 1419 1423 1426 1431 1434 1430 1442 1409 1405 1405 1406 1398 1394
1449 1451 1452 1452 1454 1457 1459 1461 1462 1464 1465 1466 1468 1472 1472 1469 1464 1459 1459 1457 1451 1442 1434 1428 1428 1428 1426 1425 1424 1422 1423 1420 1417 1418 1420 1420 1425 1432 1441 1439 1424 1407 1404 1406 1407 1390 1389
1444 1447 1448 1449 1451 1453 1455 1457 1458 1459 1461 1462 1464 1467 1470 1470 1462 1460 1458 1458 1453 1445 1436 1432 1429 1425 1426 1426 1426 1424 1428 1420 1420 1416 1418 1421 1422 1429 1438 1436 1440 1411 1404 1402 1398 1393 1392
1440 1441 1443 1445 1446 1449 1451 1452 1453 1455 1458 1459 1459 1461 1466 1467 1460 1459 1458 1457 1455 1451 1446 1440 1436 1429 1427 1431 1433 1434 1427 1423 1420 1415 1418 1425 1427 1428 1430 1427 1422 1410 1406 1399 1400 1404 1402
1435 1436 1438 1440 1442 1444 1446 1447 1449 1451 1454 1455 1456 1458 1461 1462 1459 1457 1456 1455 1455 1455 1454 1445 1439 1436 1432 1431 1431 1432 1430 1424 1424 1420 1417 1423 1427 1424 1424 1426 1424 1413 1403 1404 1410 1411 1408
1429 1430 1433 1435 1438 1439 1441 1443 1445 1448 1451 1452 1454 1456 1459 1460 1458 1455 1453 1452 1453 1453 1454 1451 1450 1447 1444 1439 1437 1431 1432 1434 1432 1430 1423 1424 1426 1423 1421 1423 1424 1421 1419 1417 1413 1414 1413